Regional Weather Roundup
Issued by NWS

Home | Current Version | Previous Version | Graphics & Text | Print | Product List | Glossary On
Versions: 1 2 3 4 5 6 7 8 9 10 11 12 13 14 15 16 17 18 19 20 21 22 23 24 25 26 27 28 29 30 31 32 33 34 35 36 37 38 39 40 41 42 43 44 45 46 47 48 49 50
000
ASUS45 KBOU 260607
RWRCO

WEATHER ROUNDUP FOR COLORADO
NATIONAL WEATHER SERVICE DENVER/BOULDER CO
1200 AM MDT SAT JUL 26 2014

NOTE: "FAIR" INDICATES FEW OR NO CLOUDS BELOW 12000 FEET WITH NO
SIGNIFICANT WEATHER AND/OR OBSTRUCTIONS TO VISIBILITY.

COZ001>005-013-030-031-260700-
...NORTHWEST COLORADO...

CITY           SKY/WX    TMP DP  RH WIND       PRES   REMARKS
CRAIG          PTCLDY    58  50  75 MISG      30.21F
HAYDEN         MOCLDY    64  46  52 SE14      30.25F
MEEKER         MOCLDY    61  52  72 CALM      30.24R
MOUNT WERNER   NOT AVBL
STEAMBOAT SPGS MOCLDY    58  50  75 W6        30.32R
WALDEN         PTCLDY    52  45  76 SE7       30.37R
$$

COZ006>008-011-260700-
...WEST CENTRAL VALLEYS...

CITY           SKY/WX    TMP DP  RH WIND       PRES   REMARKS
GRAND JUNCTION MOCLDY    69  56  62 S5        30.09S
MONTROSE       PTCLDY    72  53  51 SE8       30.19S
EAGLE          CLEAR     61  48  63 CALM      30.30R
RIFLE          PTCLDY    68  47  46 SW5       30.18R
DELTA          PTCLDY    75  49  40 NE7       30.14S
NUCLA          NOT AVBL
$$

COZ017>023-064>068-260700-
...SOUTHWEST COLORADO...

CITY           SKY/WX    TMP DP  RH WIND       PRES   REMARKS
DURANGO        PTCLDY    67  46  47 CALM      30.24S
CORTEZ         CLEAR     69  46  43 E8        30.19R
PAGOSA SPRINGS PTCLDY    65  47  52 CALM      30.34S
TELLURIDE      PTCLDY    59  48  67 E6        30.46S
WOLF CREEK PAS NOT AVBL
$$

COZ009-010-012-014-032>034-037-058>063-260700-
...CENTRAL COLORADO...

CITY           SKY/WX    TMP DP  RH WIND       PRES   REMARKS
ASPEN          PTCLDY    56  48  74 S6        30.36S
BUENA VISTA    CLEAR     57  50  77 NW8       30.38S
COPPER MTN     CLEAR     54  39  58 S9        30.69F
BERTHOUD PASS  FAIR      45  32  61 NW20      30.72S
COTTONWOOD PAS CLEAR     61  45  55 NW6       30.52F
GUNNISON       CLEAR     57  46  67 N6        30.40S
KREMMLING      PTCLDY    54  50  87 CALM      30.36F
LEADVILLE      CLEAR     45  44  97 N5        30.53S
MONARCH PASS   PTCLDY    52  43  71 W21       30.78F
SALIDA         CLEAR    N/A N/A N/A W7        30.42S
SUNLIGHT       PTCLDY    54  45  71 CALM      30.60R
WILKERSON PASS NOT AVBL
$$

COZ069>075-260700-
...SAN LUIS VALLEY/SANGRE DE CRISTO MOUNTAINS...

CITY           SKY/WX    TMP DP  RH WIND       PRES   REMARKS
ALAMOSA        PTCLDY    62  49  62 NW6       30.33F
LA VETA PASS   MOCLDY    59  39  47 CALM      30.54F
SAGUACHE       PTCLDY    59  48  67 NW13      30.38S
$$

COZ035-036-038>040-260700-
...NORTHERN COLORADO FRONT RANGE...

CITY           SKY/WX    TMP DP  RH WIND       PRES   REMARKS
DENVER INTL AP PTCLDY    70  54  56 SW16      30.10F
DMNS CITY PARK   N/A     68  54  60 SW3G10    30.11S
AURORA         PTCLDY    65  58  77 SW9       30.14S
FRONT RANGE AP NOT AVBL
ERIE MUNI ARPT PTCLDY    67  51  56 SW6       30.07S
BOULDER MUN AP PTCLDY    72  46  40 S6        30.08S
CENTENNIAL     PTCLDY    67  52  58 SW12      30.15S
BROOMFIELD     PTCLDY    68  50  52 W9        30.12F
FORT COLLINS   PTCLDY    66  50  55 S6        30.06S
LONGMONT       PTCLDY    67  51  58 W3        30.08S
$$

COZ041-046-047-076>085-087-088-260700-
...PIKES PEAK/PALMER DIVIDE AND SOUTHERN FOOTHILLS...

CITY           SKY/WX    TMP DP  RH WIND       PRES   REMARKS
COLO. SPRINGS  PTCLDY    70  53  54 W5        30.20S
A. F. ACADEMY  CLEAR     61  53  74 N8        30.23S
ELLICOTT       PTCLDY    65  55  70 CALM      30.18F
FALCON         PTCLDY    64  48  56 W7        30.25S
FORT CARSON    PTCLDY    68  53  58 W9        30.17S
LIMON          CLOUDY    64  56  75 S5        30.08F
MONUMENT HILL  NOT AVBL
TRINIDAD       CLEAR     67  54  63 W9        30.18F
$$

COZ042>045-048>051-090-091-260700-
...NORTHEAST COLORADO...

CITY           SKY/WX    TMP DP  RH WIND       PRES   REMARKS
GREELEY ARPT   PTCLDY    66  52  59 W7        30.04R
AKRON          MOCLDY    73  48  41 N3        30.03F
BURLINGTON     CLOUDY    71  61  70 SE10      30.05R
WRAY             N/A     75  61  62 SE5       29.98S
STERLING       MOCLDY    70  61  73 W3        29.98F
HOLYOKE        PTCLDY    73  66  78 S8        29.95F
FORT MORGAN    MOCLDY    66  56  71 E3        30.03S
$$

COZ086-089-092>099-260700-
...SOUTHEAST COLORADO...

CITY           SKY/WX    TMP DP  RH WIND       PRES   REMARKS
PUEBLO         PTCLDY    72  61  68 NW7       30.09R
LA JUNTA       PTCLDY    73  59  61 W10       30.04S
LAMAR          CLOUDY    72  65  78 NW5       29.95R
SPRINGFIELD      N/A     75  59  57 E7        30.03F
$$



USA.gov is the U.S. government's official web portal to all federal, state and local government web resources and services.